Back to catalog

STARLINK-36211

AliveCommunicationsVLEO
NORAD 67218·PAYLOAD·🇺🇸 United States

Launched Dec 17, 2025 from Vandenberg Space Force Base

Loading…

Next Passes (next 24 hours)

TLE

FreshSource: CelesTrak SupGP

Epoch: Sep 14, 2026, 15:39 UTC

1 67218C 25304AC  26257.65256944 -.00034569  00000+0 -28971-2 0  2575
2 67218  70.0016  57.9870 0002722 266.8899 322.3797 14.98347768    18

Track STARLINK-36211 in real time with AllMySat

Download on the App Store